If you wish to contribute or participate in the discussions about articles you are invited to join SKYbrary as a registered user

 Actions

Albacete Airport

From SKYbrary Wiki

LEAB
Airport
ICAO: LEAB – IATA: ABC
Summary
Name Albacete Airport
Region Europe
Territory Spain ES.gif
Location Albacete, Castilla–La Mancha
Serving Albacete
Elevation 701.65 m
2,302 ft
2,302 ft701.65 m
Coordinates 38° 56' 57.99" N, 1° 51' 47.98" W
Runways
Designator Length Width Surface ROPS
9/27 2700 m8,858.268 ft
60 m196.85 ft
ASP /


METAR
Observation LEAB 230600Z 22005KT 180V250 CAVOK 10/09 Q1021 NOSIG
Station Albacete / Los Llanos
Date/Time 23 October 2020 06:00:00
Wind direction 220°
Wind speed 05 kts
Lowest cloud amount clouds and visibility OK
Temperature 10°C
Dew point 9°C
Humidity 93%
QNH 1021 hPa
Weather condition n/a

Albacete Airport is an airport located at the Los Llanos Air Base, about 4 miles"miles" is not declared as a valid unit of measurement for this property. south of the city of Albacete, Spain.

Climatology

Dry-summer subtropical ”Mediterranean" climate (Köppen climate classification Csa) - characterized by hot, dry summers and mild winters. During the summer, subtropical high pressure cells dominate, making rainfall unlikely except for the occasional thunderstorm. In the winter, periodic storms bring rain (snow at higher elevations).

Maps

Terrain

Loading map...

Airport Layout

Loading map...


Accidents & Serious Incidents at or in vicinity of LEAB

None on SKYbrary